Regional Weather Roundup
Issued by NWS San Diego, CA

Home | Current Version | Previous Version | Text Only | Print | Product List | Glossary On
Versions: 1 2 3 4 5 6 7 8 9 10 11 12 13 14 15 16 17 18 19 20 21 22 23 24 25 26 27 28 29 30 31 32 33 34 35 36 37 38 39 40 41 42 43 44 45 46 47 48 49 50
000
ASUS46 KSGX 300211
RWRSGX
SAN DIEGO HOURLY WEATHER ROUNDUP
NATIONAL WEATHER SERVICE SAN DIEGO CA
700 PM PDT SAT APR 29 2017

NOTE: "FAIR" INDICATES FEW OR NO CLOUDS BELOW 12,000 FEET WITH NO
SIGNIFICANT WEATHER AND/OR OBSTRUCTIONS TO VISIBILITY.

CAZ042-043-060-061-PZZ750-775-300300-

GREATER SAN DIEGO AREA

CITY           SKY/WX    TMP DP  RH WIND       PRES   REMARKS
SAN DIEGO AP   CLEAR     75  38  26 NW7       30.00R
NATIONAL CITY    N/A     76  31  19 NW2       29.99R
CHULA VISTA      N/A     76  32  20 NW2       29.92R
IMPERIAL BEACH CLEAR     69  50  50 W6        30.00R
BROWN FIELD    CLEAR     73  25  16 W8        30.00R
MIRAMAR MCAS   PTCLDY    75  32  20 NW7       30.00R
MONTGOMERY FLD CLEAR     73  28  18 NW9       30.00R

$$

NORTH SAN DIEGO COUNTY

CITY           SKY/WX    TMP DP  RH WIND       PRES   REMARKS
CAMP PENDLETON CLEAR     73  24  16 VRB6      29.97R
OCEANSIDE AP   CLEAR     69  45  41 W10       29.98R
OCEANSIDE HBR    N/A     67  52  59 W8        30.01R
VISTA            N/A     72  38  29 W3        29.97R
CARLSBAD       CLEAR     70  42  36 VRB3      30.00R
DEL MAR          N/A     69  52  54 CALM      30.02R
LA JOLLA SCRIP   N/A     69  50  50 NW8       30.00R
FALLBROOK        N/A     74  32  21 S5        29.95R
ESCONDIDO        N/A     73  38  27 W6        30.01R
SAN MARCOS       N/A     71  38  29 NW12      30.01R
POWAY            N/A     74  29  19 N5        30.01R

$$

EAST SAN DIEGO COUNTY

CITY           SKY/WX    TMP DP  RH WIND       PRES   REMARKS
RAMONA         CLEAR     69  31  24 W8        30.02R
SANTEE LAKES     N/A     74  33  22 W1        29.98R
LA MESA          N/A     74  29  19 NW5       29.93R
JAMUL            N/A     72  29  20 CALM      30.00R
DESCANSO N       N/A     64  29  26 W2        29.97R
MT. LAGUNA OBS   N/A     51  13  21 NE8       29.71R
CAMPO            N/A     69  15  12 NE8       30.01R

$$

ORANGE COUNTY AND THE LOS ANGELES BASIN

CITY           SKY/WX    TMP DP  RH WIND       PRES   REMARKS
JOHN WAYNE AP  CLEAR     77  25  14 NW10      29.98R
LAGUNA BEACH     N/A     74  38  27 NW3       29.93R
LAKE FOREST FR   N/A     75  23  14 N1        29.86R
HUNTINGTON BCH   N/A     74  34  22 W5        29.98R
LOS ALAMITOS   FAIR      73  31  21 W13G25    29.98R
FULLERTON      CLEAR     75  29  18 W12       29.97R
LONG BEACH     CLEAR     73  27  18 W21       29.98R
L.A. AP        CLEAR     65  45  48 W17       29.98S
L.A. DOWNTOWN  CLEAR     74  33  22 W8G17     29.97S

$$

THE INLAND EMPIRE

CITY           SKY/WX    TMP DP  RH WIND       PRES   REMARKS
CORONA         CLEAR     76  26  15 W12G21    29.98R
CHINO          CLEAR     77  22  13 W14       29.99R
ONTARIO        CLEAR     77  20  12 W13       29.98R
SAN BERNARDINO CLEAR     82  10   6 N17       29.96S
RIVERSIDE AP   CLEAR     81  13   7 N9G17     29.97R
MORENO VALLEY    N/A     77  21  12 SE6       28.07R
MARCH ARB      CLEAR     77   6   6 NW16      29.98R
HORSETHIEF CYN   N/A     78   6   6 E2        29.97R
PERRIS           N/A     79  20  11 SE8       29.96R
HEMET EAST       N/A     77  12   8 W5        30.01S
FRENCH VALLEY  FAIR      75  23  14 S14       29.99R
TEMECULA         N/A     75  32  20 S7        30.02R

$$

SAN BERNARDINO AND RIVERSIDE COUNTY MOUNTAINS

CITY           SKY/WX    TMP DP  RH WIND       PRES   REMARKS
BIG BEAR AP    CLEAR     50   5  16 E6        30.21R
PINE COVE        N/A     57  15  19 W3        30.05R

$$

SOUTHERN DESERT INCLUDING THE COACHELLA VALLEY

CITY           SKY/WX    TMP DP  RH WIND       PRES   REMARKS
PALM SPRINGS   CLEAR     84   8   5 NE8       29.97R
PALM DESERT      N/A     85  14   7 CALM      26.93F
THERMAL        CLEAR     85   7   5 N8        29.91S
BLYTHE         CLEAR     81  13   7 N13       29.93R
IMPERIAL AP    CLEAR     80  28  15 W6        29.93S
EL CENTRO NAS  CLEAR     82  10   6 NW6       29.95S
YUMA AZ        CLEAR     82  15   8 N13       29.92
MEXICALI       CLEAR     82  16   8 W10       29.94R

$$

UPPER DESERT

CITY           SKY/WX    TMP DP  RH WIND       PRES   REMARKS
VICTORVILLE AP CLEAR     70   9   9 CALM      30.09R
HESPERIA         N/A     68  12  11 E3        30.16R
PALMDALE       CLEAR     73   7   7 E8        30.07S
LANCASTER      CLEAR     73   6   7 E6        30.06S
EDWARDS AFB    CLEAR     75   0   5 E5        30.04S
DAGGETT        CLEAR     75   9   8 SE3       30.04S
29 PALMS N     CLEAR     74   6   7 N7        30.10S
NEEDLES        CLEAR     81  15   8 N12       29.95S

$$

REGIONAL REPORTS

CITY           SKY/WX    TMP DP  RH WIND       PRES   REMARKS
SANTA BARBARA  CLEAR     67  40  37 W8        30.01S
SANDBERG       CLEAR     63  26  24 N17       30.16R
LAS VEGAS NV   CLEAR     76   9   7 NE12      30.00R
PHOENIX AZ     PTCLDY    77  21  12 W16       29.86S
TIJUANA        CLEAR     73  23  15 NW10      30.02R
ENSENADA NW      N/A     76  32  20 N6        29.95R

$$

OFFSHORE ISLANDS

CITY           SKY/WX    TMP DP  RH WIND       PRES   REMARKS
CATALINA ARPT  CLEAR     64  35  34 SW13      30.04R
SAN NICOLAS IS CLEAR    N/A N/A N/A W18       30.04R

$$

MARINE AND OFFSHORE BUOY REPORTS

STATION/POSITION SKY/WX   TEMP    WIND        PRES    VSBY  SWELL
                          AIR SEA DIR/SP/G                  HT/PER/DIR
                          (F)     (DEG/KT/KT) (MB)    (MI)  (FT/S/D)
TANNER BANKS               59 57  310/ 10/ 12 1016.9          7/330/ 9
S CLEMENTE BASIN           66 64  300/ 14/ 16 1015.1          5/300/11
SAN NICOLAS IS.               53                N/A           3/300/11
SO. S. ROSA ISLA           55 53  290/ 12/ 16 1017.1          7/310/10
W. S. BARBARA CH           55 54  310/ 10/ 12 1017.4          7/300/10
M. S. BARBARA CH                  260/ 12/ 14 1017.0
S. MONICA BASIN            64 62  260/  8/ 10 1016.0
S PEDRO CHANNEL               59                N/A           2/260/11
CMP PENDLETON NS              64                N/A           2/220/20
OCEANSIDE OFFSHR              63                N/A           2/200/20
TORREY PINES OTR              65                N/A           3/280/11
POINT LOMA SOUTH              63                N/A           3/280/11

$$





USA.gov is the U.S. government's official web portal to all federal, state and local government web resources and services.